Location: Unspecified
(0.0000°N, 0.0000°E)
Time: 23:55:13
(UTC+02:00)

SJ-6B - Visible Passes

Search period start: 23 September 2017 00:00
Search period end: 03 October 2017 00:00
Orbit: 511 x 584 km, 97.7° (Epoch: 23 September)

Date Brightness Start Highest point End Pass type
(mag) Time Alt. Az. Time Alt. Az. Time Alt. Az.
23 Sep 5.0 21:23:10 16° N 21:23:10 16° N 21:24:05 10° N visible
24 Sep 5.1 21:18:21 14° N 21:18:21 14° N 21:18:56 10° N visible
25 Sep 5.3 21:13:32 11° NNE 21:13:32 11° NNE 21:13:46 10° NNE visible
